TimeIST,TemperatureF,Dew PointF,Humidity,Sea Level PressureIn,VisibilityMPH,Wind Direction,Wind SpeedMPH,Gust SpeedMPH,PrecipitationIn,Events,Conditions,WindDirDegrees,DateUTC
12:10 AM,77.0,68.0,74,29.89,2.5,NE,3.5,-,N/A,,Smoke,50,2012-10-23 18:40:00
12:40 AM,75.2,66.2,73,29.86,2.5,NNE,3.5,-,N/A,,Haze,30,2012-10-23 19:10:00
1:10 AM,75.2,66.2,73,29.86,2.5,Calm,Calm,-,N/A,,Haze,0,2012-10-23 19:40:00
1:40 AM,75.2,68.0,78,29.86,2.5,Calm,Calm,-,N/A,,Haze,0,2012-10-23 20:10:00
2:10 AM,73.4,68.0,83,29.86,2.5,Calm,Calm,-,N/A,,Haze,0,2012-10-23 20:40:00
2:30 AM,76,64,59,29.87,2,NNW,3.5,,,,Haze,340,2012-10-23 21:00:00
2:40 AM,73.4,66.2,78,29.86,2.5,Calm,Calm,-,N/A,,Haze,0,2012-10-23 21:10:00
3:10 AM,73.4,64.4,73,29.86,2.5,Calm,Calm,-,N/A,,Haze,0,2012-10-23 21:40:00
3:40 AM,73.4,64.4,73,29.83,2.5,Variable,2.3,-,N/A,,Haze,0,2012-10-23 22:10:00
4:10 AM,71.6,64.4,78,29.86,2.5,NNE,3.5,-,N/A,,Haze,20,2012-10-23 22:40:00
4:40 AM,73.4,62.6,69,29.83,2.5,NNE,3.5,-,N/A,,Haze,20,2012-10-23 23:10:00
5:10 AM,71.6,62.6,73,29.83,2.5,North,3.5,-,N/A,,Haze,350,2012-10-23 23:40:00
5:30 AM,75,62,54,29.87,2,NNW,3.5,,,,Haze,340,2012-10-24 00:00:00
6:10 AM,71.6,62.6,73,29.86,2.2,Variable,2.3,-,N/A,,Haze,0,2012-10-24 00:40:00
7:40 AM,73.4,62.6,69,29.89,1.6,Calm,Calm,-,N/A,,Haze,0,2012-10-24 02:10:00
8:30 AM,79,62,46,29.91,1,SE,3.5,,,,Haze,140,2012-10-24 03:00:00
8:40 AM,78.8,64.4,61,29.92,1.6,Calm,Calm,-,N/A,,Smoke,0,2012-10-24 03:10:00
9:10 AM,80.6,64.4,58,29.92,1.6,Calm,Calm,-,N/A,,Smoke,0,2012-10-24 03:40:00
11:30 AM,94,62,25,29.91,2,East,3.5,,,,Haze,90,2012-10-24 06:00:00
11:40 AM,95.0,60.8,32,29.86,3.1,Calm,Calm,-,N/A,,Smoke,0,2012-10-24 06:10:00
12:10 PM,96.8,59.0,28,29.86,3.1,Calm,Calm,-,N/A,,Smoke,0,2012-10-24 06:40:00
12:40 PM,98.6,57.2,25,29.86,3.1,North,3.5,-,N/A,,Smoke,10,2012-10-24 07:10:00
1:10 PM,98.6,59.0,27,29.83,3.7,NE,3.5,-,N/A,,Unknown,50,2012-10-24 07:40:00
1:40 PM,98.6,59.0,27,29.80,3.7,East,3.5,-,N/A,,Unknown,90,2012-10-24 08:10:00
2:10 PM,98.6,59.0,27,29.80,3.7,East,3.5,-,N/A,,Unknown,90,2012-10-24 08:40:00
2:30 PM,96,56,17,29.83,2,North,3.5,,,,Partly Cloudy,0,2012-10-24 09:00:00
2:40 PM,98.6,55.4,24,29.80,3.7,East,3.5,-,N/A,,Unknown,90,2012-10-24 09:10:00
3:10 PM,100.4,57.2,24,29.77,3.7,North,3.5,-,N/A,,Partly Cloudy,10,2012-10-24 09:40:00
3:40 PM,98.6,57.2,25,29.77,3.7,NW,3.5,-,N/A,,Partly Cloudy,320,2012-10-24 10:10:00
4:10 PM,98.6,55.4,24,29.77,3.7,North,3.5,-,N/A,,Partly Cloudy,10,2012-10-24 10:40:00
4:40 PM,96.8,55.4,25,29.77,3.7,North,3.5,-,N/A,,Partly Cloudy,10,2012-10-24 11:10:00
5:10 PM,95.0,60.8,32,29.77,3.7,North,3.5,-,N/A,,Partly Cloudy,10,2012-10-24 11:40:00
5:30 PM,93,59,23,29.82,2,NNW,3.5,,,,Partly Cloudy,340,2012-10-24 12:00:00
6:10 PM,89.6,59.0,36,29.80,2.5,NE,3.5,-,N/A,,Smoke,50,2012-10-24 12:40:00
6:40 PM,87.8,57.2,35,29.80,2.5,East,3.5,-,N/A,,Smoke,90,2012-10-24 13:10:00
7:10 PM,86.0,59.0,40,29.83,2.5,NE,3.5,-,N/A,,Smoke,50,2012-10-24 13:40:00
7:40 PM,84.2,55.4,37,29.83,2.5,NE,3.5,-,N/A,,Smoke,50,2012-10-24 14:10:00
8:10 PM,82.4,57.2,42,29.83,2.5,ENE,3.5,-,N/A,,Smoke,60,2012-10-24 14:40:00
8:30 PM,78,63,50,29.88,2,Calm,Calm,,,,,,2012-10-24 15:00:00
8:40 PM,80.6,57.2,45,29.86,2.5,NNE,3.5,-,N/A,,Smoke,30,2012-10-24 15:10:00
9:10 PM,78.8,59.0,51,29.86,2.5,NE,3.5,-,N/A,,Smoke,50,2012-10-24 15:40:00
9:40 PM,78.8,59.0,51,29.86,2.5,ENE,3.5,-,N/A,,Smoke,60,2012-10-24 16:10:00
10:10 PM,78.8,57.2,47,29.86,2.5,Calm,Calm,-,N/A,,Smoke,0,2012-10-24 16:40:00
10:40 PM,77.0,59.0,54,29.86,2.5,Calm,Calm,-,N/A,,Smoke,0,2012-10-24 17:10:00
11:10 PM,75.2,59.0,57,29.86,2.5,Calm,Calm,-,N/A,,Smoke,0,2012-10-24 17:40:00
11:30 PM,73,64,66,29.89,2,Calm,Calm,,,,Haze,,2012-10-24 18:00:00
11:40 PM,73.4,62.6,69,29.86,2.5,Calm,Calm,-,N/A,,Haze,0,2012-10-24 18:10:00